Location: Paris
(48.6709°N, 2.3750°E)
Time: 00:40:17
(UTC+02:00)

CUBESAT XI-V - Pass Details

Date: 05 July 2022
Orbit: 668 x 690 km, 98.1° (Epoch: 14 August)

Event Time Altitude Azimuth Distance (km) Brightness Sun altitude
Exits shadow 02:26:28 - 123° (ESE) 2,211 ? -18.2°
Reaches altitude 10° 02:26:46 10° 121° (ESE) 2,102 ? -18.2°
Maximum altitude 02:30:37 27° 64° (ENE) 1,284 ? -18.1°
Drops below altitude 10° 02:34:28 10° 7° (N) 2,108 ? -18.0°
Sets 02:36:57 0° 356° (N) 3,025 ? -17.9°
